CW7710 Weather Reports


Display with metric or nautical units.
time (UTC)temp
F
wind
direction
speed
MPH
gust
MPH
rain 1hr
in
rain 24hr
in
rain mn
in
humidity
%
barometer
mb
20260510104327 36 133 3.0 0.0 0.00 0.00 0.00 77 1022.1
20260510103330 36 144 3.0 0.0 0.00 0.00 0.00 77 1022.2
20260510102335 38 123 3.0 0.0 0.00 0.00 0.00 77 1022.8
20260510101339 38 121 3.0 0.0 0.00 0.00 0.00 77 1022.7
20260510100328 38 119 3.0 0.0 0.00 0.00 0.00 76 1022.8
20260510095332 38 101 3.0 0.0 0.00 0.00 0.00 76 1022.6
20260510094334 36 123 4.0 0.0 0.00 0.00 0.00 75 1021.9
20260510093358 36 90 3.0 0.0 0.00 0.00 0.00 73 1022.0
20260510092400 38 80 3.0 0.0 0.00 0.00 0.00 73 1022.4
20260510091328 39 85 4.0 0.0 0.00 0.00 0.00 73 1022.3
20260510090332 38 104 3.0 0.0 0.00 0.00 0.00 73 1022.3
20260510085337 39 106 1.0 0.0 0.00 0.00 0.00 72 1021.7
20260510084402 39 157 1.0 0.0 0.00 0.00 0.00 71 1021.7
20260510083344 40 172 0.0 0.0 0.00 0.00 0.00 71 1022.5
20260510082332 40 172 1.0 0.0 0.00 0.00 0.00 70 1022.4
20260510081336 40 172 1.0 0.0 0.00 0.00 0.00 70 1022.3
20260510080401 40 172 0.0 0.0 0.00 0.00 0.00 69 1022.3
20260510075342 40 172 1.0 0.0 0.00 0.00 0.00 69 1022.3
20260510074326 41 172 2.0 0.0 0.00 0.00 0.00 68 1022.2
20260510073333 42 171 1.0 0.0 0.00 0.00 0.00 67 1021.9
20260510072336 43 172 1.0 0.0 0.00 0.00 0.00 68 1021.8
20260510071340 42 176 0.0 0.0 0.00 0.00 0.00 68 1021.7
20260510070344 41 176 1.0 0.0 0.00 0.00 0.00 67 1022.1
20260510065333 42 176 2.0 0.0 0.00 0.00 0.00 65 1022.0
20260510064338 43 171 1.0 0.0 0.00 0.00 0.00 64 1021.6
20260510063402 43 86 3.0 0.0 0.00 0.00 0.00 62 1021.6
20260510062325 46 110 4.0 0.0 0.00 0.00 0.00 62 1021.0
20260510061329 47 112 4.0 0.0 0.00 0.00 0.00 61 1021.5
20260510060339 47 129 4.0 0.0 0.00 0.00 0.00 62 1021.4
20260510055344 46 110 2.0 0.0 0.00 0.00 0.00 61 1020.8
20260510054328 46 108 1.0 0.0 0.00 0.00 0.00 59 1020.9
20260510053333 46 108 1.0 0.0 0.00 0.00 0.00 59 1020.7
20260510052343 46 108 3.0 0.0 0.00 0.00 0.00 59 1020.7
20260510051327 46 108 1.0 0.0 0.00 0.00 0.00 59 1020.7
20260510050331 46 108 2.0 0.0 0.00 0.00 0.00 57 1020.7
20260510045337 47 108 1.0 0.0 0.00 0.00 0.00 56 1020.6
20260510044326 48 108 0.0 0.0 0.00 0.00 0.00 55 1020.5
20260510043331 48 108 0.0 0.0 0.00 0.00 0.00 55 1020.5
20260510042335 48 108 2.0 0.0 0.00 0.00 0.00 54 1020.5
20260510041400 49 108 0.0 0.0 0.00 0.00 0.00 52 1020.9
20260510040328 50 108 0.0 0.0 0.00 0.00 0.00 51 1020.7
20260510035336 51 108 0.0 0.0 0.00 0.00 0.00 49 1020.6
20260510034400 52 108 0.0 0.0 0.00 0.00 0.00 49 1020.4
20260510033343 52 108 1.0 0.0 0.00 0.00 0.00 49 1020.3
20260510032331 53 108 2.0 0.0 0.00 0.00 0.00 48 1019.8
20260510031335 54 196 1.0 0.0 0.00 0.00 0.00 46 1019.6
20260510030338 55 213 1.0 0.0 0.00 0.00 0.00 45 1020.1
20260510025402 55 329 2.0 0.0 0.00 0.00 0.00 46 1019.2
20260510024326 56 176 4.0 0.0 0.00 0.00 0.00 44 1019.0
20260510023336 59 162 2.0 0.0 0.00 0.00 0.00 39 1019.3
20260510022340 62 110 2.0 0.0 0.00 0.00 0.00 37 1018.8
20260510021328 64 181 1.0 0.0 0.00 0.00 0.00 35 1019.3
20260510020332 65 181 3.0 0.0 0.00 0.00 0.00 32 1020.0
20260510015341 66 181 2.0 0.0 0.00 0.00 0.00 31 1019.0
20260510014406 68 2 1.0 0.0 0.00 0.00 0.00 29 1018.7
20260510013349 69 2 0.0 0.0 0.00 0.00 0.00 29 1019.3
20260510012332 68 1 1.0 0.0 0.00 0.00 0.00 29 1018.7
20260510011357 68 38 1.0 0.0 0.00 0.00 0.00 29 1018.7
20260510010327 67 38 2.0 0.0 0.00 0.00 0.00 30 1018.7
20260510005334 67 49 2.0 0.0 0.00 0.00 0.00 30 1019.0
20260510004339 68 59 3.0 0.0 0.00 0.00 0.00 29 1018.7
20260510003327 68 28 3.0 0.0 0.00 0.00 0.00 29 1018.7
20260510002332 68 325 2.0 0.0 0.00 0.00 0.00 30 1018.8
20260510001340 67 253 2.0 0.0 0.00 0.00 0.00 30 1019.0
20260510000329 67 181 2.0 0.0 0.00 0.00 0.00 29 1019.1
20260509235337 67 186 3.0 0.0 0.00 0.00 0.00 29 1019.2
20260509234343 68 209 3.0 0.0 0.00 0.00 0.00 29 1019.2
20260509233327 68 227 3.0 0.0 0.00 0.00 0.00 29 1019.1
20260509232333 68 138 2.0 0.0 0.00 0.00 0.00 29 1019.1
20260509231342 68 283 4.0 0.0 0.00 0.00 0.00 30 1019.2
20260509230326 67 233 5.0 0.0 0.00 0.00 0.00 29 1018.2
20260509225329 68 297 3.0 0.0 0.00 0.00 0.00 30 1019.2
20260509224333 67 354 3.0 0.0 0.00 0.00 0.00 29 1019.2
20260509223339 67 338 5.0 0.0 0.00 0.00 0.00 29 1019.3
20260509222326 67 251 5.0 0.0 0.00 0.00 0.00 29 1019.3
20260509221350 67 244 6.0 0.0 0.00 0.00 0.00 30 1019.3
20260509220334 66 294 5.0 0.0 0.00 0.00 0.00 30 1020.0
20260509215341 66 91 5.0 0.0 0.00 0.00 0.00 30 1019.3
20260509214329 65 326 3.0 0.0 0.00 0.00 0.00 31 1019.3
20260509213335 65 337 7.0 0.0 0.00 0.00 0.00 31 1019.5
20260509212339 64 40 9.0 0.0 0.00 0.00 0.00 34 1019.9
20260509211343 64 46 10.0 0.0 0.00 0.00 0.00 34 1020.0
20260509210351 64 32 11.0 0.0 0.00 0.00 0.00 33 1020.1
20260509205334 64 17 11.0 0.0 0.00 0.00 0.00 33 1019.7
20260509204342 64 43 11.0 0.0 0.00 0.00 0.00 34 1019.6
20260509203327 65 26 13.0 0.0 0.00 0.00 0.00 33 1019.3
20260509202335 65 11 12.0 0.0 0.00 0.00 0.00 33 1019.4
20260509201339 64 352 15.0 0.0 0.00 0.00 0.00 34 1019.5
20260509200324 63 16 15.0 0.0 0.00 0.00 0.00 34 1019.5
20260509195331 63 12 16.0 0.0 0.00 0.00 0.00 34 1019.2
20260509194334 65 28 16.0 0.0 0.00 0.00 0.00 33 1019.6
20260509193343 65 352 11.0 0.0 0.00 0.00 0.00 31 1019.4
20260509192333 65 9 8.0 0.0 0.00 0.00 0.00 31 1019.6
20260509191337 63 313 10.0 0.0 0.00 0.00 0.00 31 1019.1
20260509190402 63 277 12.0 0.0 0.00 0.00 0.00 32 1018.1
20260509185349 65 298 12.0 0.0 0.00 0.00 0.00 29 1019.6
20260509184332 65 264 12.0 0.0 0.00 0.00 0.00 30 1019.4
20260509183336 64 220 9.0 0.0 0.00 0.00 0.00 31 1018.8
20260509182339 64 302 8.0 0.0 0.00 0.00 0.00 31 1018.8
20260509181404 64 246 5.0 0.0 0.00 0.00 0.00 30 1018.9
20260509180331 63 290 8.0 0.0 0.00 0.00 0.00 31 1018.2
20260509175336 63 309 4.0 0.0 0.00 0.00 0.00 32 1019.0
20260509174341 62 127 4.0 0.0 0.00 0.00 0.00 31 1019.5
20260509173325 62 298 9.0 0.0 0.00 0.00 0.00 32 1019.2
20260509172334 63 306 6.0 0.0 0.00 0.00 0.00 32 1019.2
20260509171342 62 263 7.0 0.0 0.00 0.00 0.00 33 1019.5
20260509170326 61 329 7.0 0.0 0.00 0.00 0.00 33 1019.4
20260509165330 61 319 9.0 0.0 0.00 0.00 0.00 34 1020.0
20260509164338 61 359 11.0 0.0 0.00 0.00 0.00 33 1020.0
20260509163401 62 302 10.0 0.0 0.00 0.00 0.00 35 1019.6
20260509162343 60 342 6.0 0.0 0.00 0.00 0.00 34 1019.9
20260509161347 59 288 5.0 0.0 0.00 0.00 0.00 38 1019.4
20260509160332 59 265 5.0 0.0 0.00 0.00 0.00 38 1018.6
20260509155340 58 273 2.0 0.0 0.00 0.00 0.00 39 1019.4
20260509154328 57 227 3.0 0.0 0.00 0.00 0.00 41 1019.6
20260509153333 56 102 3.0 0.0 0.00 0.00 0.00 43 1019.7
20260509152342 55 50 3.0 0.0 0.00 0.00 0.00 43 1019.9
20260509151350 54 69 4.0 0.0 0.00 0.00 0.00 45 1019.9
20260509150332 53 88 5.0 0.0 0.00 0.00 0.00 48 1019.4
20260509145337 52 81 6.0 0.0 0.00 0.00 0.00 49 1019.3
20260509144341 51 100 6.0 0.0 0.00 0.00 0.00 52 1019.4
20260509143345 51 86 6.0 0.0 0.00 0.00 0.00 54 1019.6
20260509142354 49 82 7.0 0.0 0.00 0.00 0.00 57 1019.5
20260509141341 48 66 5.0 0.0 0.00 0.00 0.00 61 1019.7
20260509140329 47 86 5.0 0.0 0.00 0.00 0.00 65 1019.7
20260509135333 45 71 4.0 0.0 0.00 0.00 0.00 65 1019.7
20260509134401 44 58 4.0 0.0 0.00 0.00 0.00 64 1019.6
20260509133325 44 75 4.0 0.0 0.00 0.00 0.00 62 1019.6
20260509132331 45 70 3.0 0.0 0.00 0.00 0.00 57 1019.2
20260509131335 48 5 1.0 0.0 0.00 0.00 0.00 55 1019.0
20260509130339 46 338 5.0 0.0 0.00 0.00 0.00 57 1018.8
20260509125348 45 274 6.0 0.0 0.00 0.00 0.00 56 1018.7
20260509124329 45 296 7.0 0.0 0.00 0.00 0.00 54 1018.6
20260509123334 45 294 6.0 0.0 0.00 0.00 0.00 54 1018.5
20260509122358 44 321 4.0 0.0 0.00 0.00 0.00 55 1018.4
20260509121341 43 315 5.0 0.0 0.00 0.00 0.00 55 1018.7
20260509120349 43 263 8.0 0.0 0.00 0.00 0.00 54 1017.8
20260509115321 45 255 7.0 0.0 0.00 0.00 0.00 50 1018.3
20260509114329 49 288 9.0 0.0 0.00 0.00 0.00 45 1018.4
20260509113352 52 317 13.0 0.0 0.00 0.00 0.00 43 1018.1
20260509112334 52 10 13.0 0.0 0.00 0.00 0.00 43 1018.0
20260509111342 51 304 12.0 0.0 0.00 0.00 0.00 44 1017.9
20260509110326 49 342 8.0 0.0 0.00 0.00 0.00 48 1018.1
20260509105331 47 343 7.0 0.0 0.00 0.00 0.00 52 1017.4